Home   Weather   Saint-Pierre   Past weeks

Flag for Réunion (French) Past Weather in Saint-Pierre, Réunion (French) — Yesterday and Last 2 Weeks

Now
79 °F

Sunny.


Feels Like: 80 °F
Forecast: 76 / 85 °F
Wind: 2 mph from North

Location: Saint Airport-Pierre

Current Time: Jan 21, 2017 at 6:43:58 am

Latest Report: Jan 21, 2017 at 6:00 am


Visibility: 10 mi

Pressure: 29.98 "Hg

Humidity: 54%

Dew Point: 61 °F

Location of Saint-PierreLocation

Past Weather in Saint-Pierre — Graph

°F

Saint-Pierre Temperature Yesterday

Maximum temperature yesterday: 90 °F (at 11:30 am)
Minimum temperature yesterday: 75 °F (at 6:00 am)
Average temperature yesterday: 83 °F

High & Low Weather Summary for the Past Weeks

 TemperatureHumidityPressure
High90 °F (Jan 6, 10:30 am)79% (Jan 10, 11:00 pm)30.07 "Hg (Jan 10, 11:00 pm)
Low73 °F (Jan 7, 4:30 am)40% (Jan 18, 9:30 am)29.83 "Hg (Jan 8, 3:00 pm)
Average82 °F61%29.95 "Hg
* Reported Jan 6 5:00 am — Jan 21 5:30 am, Saint-Pierre, Weather by CustomWeather, © 2017

Note: Actual official high and low records may vary slightly from our data, if they occured in-between our weather recording intervals... More about our weather records

Advertising

Saint-Pierre Weather History for the Previous 24 Hours

Scroll right to see more
 ConditionsComfort  
Time TempWeatherWind HumidityBarometerVisibility
5:30 am
Sat, Jan 21
77 °FClear.3 mph61%29.95 "Hg10 mi
5:00 am75 °FClear.7 mph65%29.95 "Hg10 mi
4:30 am75 °FPassing clouds.6 mph65%29.95 "HgN/A
4:00 am77 °FClear.7 mph61%29.95 "Hg10 mi
3:30 am77 °FClear.6 mph61%29.95 "Hg10 mi
3:00 am77 °FClear.5 mph65%29.95 "Hg10 mi
2:30 am77 °FClear.6 mph65%29.95 "Hg10 mi
2:00 am77 °FClear.6 mph65%29.95 "Hg10 mi
1:30 am77 °FClear.6 mph69%29.98 "Hg10 mi
1:00 am77 °FClear.7 mph69%29.98 "Hg10 mi
12:30 am77 °FClear.7 mph69%29.98 "Hg10 mi
12:00 am79 °FWarm.2 mph65%29.98 "HgN/A
11:30 pm
Fri, Jan 20
79 °FPassing clouds.3 mph61%30.01 "HgN/A
11:00 pm79 °FPassing clouds.6 mph58%30.01 "HgN/A
10:30 pm81 °FPassing clouds.3 mph58%30.01 "HgN/A
10:00 pm81 °FPassing clouds.3 mph74%29.98 "HgN/A
9:30 pm81 °FPassing clouds.3 mph74%29.98 "HgN/A
9:00 pm82 °FPassing clouds.10 mph70%29.98 "HgN/A
8:30 pm82 °FClear.13 mph70%29.95 "Hg10 mi
8:00 pm82 °FClear.13 mph70%29.95 "Hg10 mi
7:30 pm82 °FClear.15 mph70%29.95 "Hg10 mi
7:00 pm82 °FSunny.16 mph70%29.92 "Hg10 mi
6:30 pm84 °FSunny.18 mph66%29.89 "Hg10 mi
6:00 pm86 °FSunny.17 mph62%29.89 "Hg10 mi
5:30 pm86 °FSunny.18 mph59%29.89 "Hg10 mi
5:00 pm88 °FSunny.18 mph55%29.89 "Hg10 mi
4:30 pm88 °FSunny.17 mph55%29.89 "Hg10 mi
4:00 pm88 °FSunny.16 mph59%29.89 "Hg10 mi
3:30 pm88 °FPassing clouds.15 mph55%29.89 "HgN/A
3:00 pm88 °FSunny.14 mph55%29.89 "Hg10 mi
2:30 pm90 °FSunny.13 mph49%29.89 "Hg10 mi
2:00 pm90 °FScattered clouds.12 mph49%29.92 "HgN/A
1:30 pm88 °FPartly sunny.10 mph55%29.92 "HgN/A
1:00 pm90 °FPassing clouds.13 mph43%29.92 "HgN/A
12:30 pm88 °FPassing clouds.10 mph52%29.92 "HgN/A
12:00 pm90 °FSunny.12 mph46%29.92 "Hg10 mi
11:30 am90 °FPartly sunny.8 mph46%29.95 "HgN/A
11:00 am88 °FPassing clouds.8 mph49%29.95 "HgN/A
10:30 am88 °FPassing clouds.17 mph52%29.95 "HgN/A
10:00 am88 °FScattered clouds.7 mph49%29.95 "HgN/A
9:30 am86 °FPassing clouds.7 mph55%29.95 "HgN/A
9:00 am84 °FPassing clouds.10 mph62%29.95 "HgN/A
8:30 am84 °FPartly sunny.10 mph51%29.95 "HgN/A
8:00 am81 °FPartly sunny.16 mph70%29.95 "HgN/A
7:30 am82 °FWarm.8 mph58%29.95 "HgN/A
7:00 am79 °FWarm.5 mph58%29.95 "HgN/A
6:30 am77 °FPassing clouds.3 mph65%29.95 "HgN/A
6:00 am75 °FPartly sunny.3 mph65%29.95 "HgN/A
Weather by CustomWeather, © 2017

See weather overviewHow to use our weather pages